Year,Month,Day,Hour,Minute,Value (Times are PST for temperature in C)
2009,05,22,00,00,7.40
2009,05,22,00,01,7.40
2009,05,22,00,02,7.40
2009,05,22,00,03,7.40
2009,05,22,00,04,7.30
2009,05,22,00,05,7.30
2009,05,22,00,06,7.30
2009,05,22,00,07,7.30
2009,05,22,00,08,7.30
2009,05,22,00,09,7.20
2009,05,22,00,10,7.20
2009,05,22,00,11,7.20
2009,05,22,00,12,7.20
2009,05,22,00,13,7.20
2009,05,22,00,14,7.20
2009,05,22,00,15,7.20
2009,05,22,00,16,7.10
2009,05,22,00,17,7.10
2009,05,22,00,18,7.10
2009,05,22,00,19,7.10
2009,05,22,00,20,7.00
2009,05,22,00,21,7.00
2009,05,22,00,22,7.00
2009,05,22,00,23,6.90
2009,05,22,00,24,6.90
2009,05,22,00,25,6.90
2009,05,22,00,26,6.90
2009,05,22,00,27,6.90
2009,05,22,00,28,6.90
2009,05,22,00,29,6.90
2009,05,22,00,30,6.90
2009,05,22,00,31,6.90
2009,05,22,00,32,6.80
2009,05,22,00,33,6.80
2009,05,22,00,34,6.80
2009,05,22,00,35,6.80
2009,05,22,00,36,6.80
2009,05,22,00,37,6.80
2009,05,22,00,38,6.80
2009,05,22,00,39,6.70
2009,05,22,00,40,6.70
2009,05,22,00,41,6.70
2009,05,22,00,42,6.70
2009,05,22,00,43,6.70
2009,05,22,00,44,6.70
2009,05,22,00,45,6.70
2009,05,22,00,46,6.70
2009,05,22,00,47,6.70
2009,05,22,00,48,6.70
2009,05,22,00,49,6.70
2009,05,22,00,50,6.70
2009,05,22,00,51,6.70
2009,05,22,00,52,6.70
2009,05,22,00,53,6.70
2009,05,22,00,54,6.60
2009,05,22,00,55,6.60
2009,05,22,00,56,6.60
2009,05,22,00,57,6.60
2009,05,22,00,58,6.60
2009,05,22,00,59,6.60
2009,05,22,01,00,6.60
2009,05,22,01,01,6.70
2009,05,22,01,02,6.70
2009,05,22,01,03,6.70
2009,05,22,01,04,6.70
2009,05,22,01,05,6.70
2009,05,22,01,06,6.70
2009,05,22,01,07,6.70
2009,05,22,01,08,6.70
2009,05,22,01,09,6.80
2009,05,22,01,10,6.80
2009,05,22,01,11,6.80
2009,05,22,01,12,6.80
2009,05,22,01,13,6.80
2009,05,22,01,14,6.80
2009,05,22,01,15,6.90
2009,05,22,01,16,6.90
2009,05,22,01,17,6.90
2009,05,22,01,18,6.90
2009,05,22,01,19,6.90
2009,05,22,01,20,6.90
2009,05,22,01,21,6.90
2009,05,22,01,22,6.90
2009,05,22,01,23,6.90
2009,05,22,01,24,6.90
2009,05,22,01,25,6.90
2009,05,22,01,26,6.90
2009,05,22,01,27,6.80
2009,05,22,01,28,6.80
2009,05,22,01,29,6.80
2009,05,22,01,30,6.80
2009,05,22,01,31,6.80
2009,05,22,01,32,6.80
2009,05,22,01,33,6.80
2009,05,22,01,34,6.80
2009,05,22,01,35,6.80
2009,05,22,01,36,6.80
2009,05,22,01,37,6.80
2009,05,22,01,38,6.70
2009,05,22,01,39,6.70
2009,05,22,01,40,6.70
2009,05,22,01,41,6.70
2009,05,22,01,42,6.70
2009,05,22,01,43,6.70
2009,05,22,01,44,6.70
2009,05,22,01,45,6.60
2009,05,22,01,46,6.60
2009,05,22,01,47,6.60
2009,05,22,01,48,6.60
2009,05,22,01,49,6.60
2009,05,22,01,50,6.60
2009,05,22,01,51,6.50
2009,05,22,01,52,6.50
2009,05,22,01,53,6.50
2009,05,22,01,54,6.50
2009,05,22,01,55,6.50
2009,05,22,01,56,6.40
2009,05,22,01,57,6.40
2009,05,22,01,58,6.40
2009,05,22,01,59,6.40
2009,05,22,02,00,6.40
2009,05,22,02,01,6.30
2009,05,22,02,02,6.30
2009,05,22,02,03,6.30
2009,05,22,02,04,6.30
2009,05,22,02,05,6.30
2009,05,22,02,06,6.30
2009,05,22,02,07,6.20
2009,05,22,02,08,6.20
2009,05,22,02,09,6.20
2009,05,22,02,10,6.20
2009,05,22,02,11,6.20
2009,05,22,02,12,6.10
2009,05,22,02,13,6.10
2009,05,22,02,14,6.10
2009,05,22,02,15,6.10
2009,05,22,02,16,6.10
2009,05,22,02,17,6.10
2009,05,22,02,18,6.00
2009,05,22,02,19,6.00
2009,05,22,02,20,6.00
2009,05,22,02,21,6.00
2009,05,22,02,22,5.90
2009,05,22,02,23,5.90
2009,05,22,02,24,5.90
2009,05,22,02,25,5.90
2009,05,22,02,26,5.90
2009,05,22,02,27,5.90
2009,05,22,02,28,5.80
2009,05,22,02,29,5.80
2009,05,22,02,30,5.80
2009,05,22,02,31,5.80
2009,05,22,02,32,5.80
2009,05,22,02,33,5.80
2009,05,22,02,34,5.70
2009,05,22,02,35,5.70
2009,05,22,02,36,5.70
2009,05,22,02,37,5.70
2009,05,22,02,38,5.70
2009,05,22,02,39,5.70
2009,05,22,02,40,5.60
2009,05,22,02,41,5.60
2009,05,22,02,42,5.60
2009,05,22,02,43,5.60
2009,05,22,02,44,5.60
2009,05,22,02,45,5.50
2009,05,22,02,46,5.50
2009,05,22,02,47,5.50
2009,05,22,02,48,5.50
2009,05,22,02,49,5.40
2009,05,22,02,50,5.40
2009,05,22,02,51,5.40
2009,05,22,02,52,5.40
2009,05,22,02,53,5.40
2009,05,22,02,54,5.40
2009,05,22,02,55,5.40
2009,05,22,02,56,5.40
2009,05,22,02,57,5.40
2009,05,22,02,58,5.40
2009,05,22,02,59,5.40
2009,05,22,03,00,5.40
2009,05,22,03,01,5.40
2009,05,22,03,02,5.40
2009,05,22,03,03,5.40
2009,05,22,03,04,5.40
2009,05,22,03,05,5.40
2009,05,22,03,06,5.40
2009,05,22,03,07,5.40
2009,05,22,03,08,5.40
2009,05,22,03,09,5.40
2009,05,22,03,10,5.40
2009,05,22,03,11,5.40
2009,05,22,03,12,5.40
2009,05,22,03,13,5.40
2009,05,22,03,14,5.30
2009,05,22,03,15,5.30
2009,05,22,03,16,5.30
2009,05,22,03,17,5.30
2009,05,22,03,18,5.30
2009,05,22,03,19,5.30
2009,05,22,03,20,5.30
2009,05,22,03,21,5.30
2009,05,22,03,22,5.20
2009,05,22,03,23,5.20
2009,05,22,03,24,5.20
2009,05,22,03,25,5.20
2009,05,22,03,26,5.20
2009,05,22,03,27,5.20
2009,05,22,03,28,5.20
2009,05,22,03,29,5.20
2009,05,22,03,30,5.10
2009,05,22,03,31,5.10
2009,05,22,03,32,5.10
2009,05,22,03,33,5.10
2009,05,22,03,34,5.10
2009,05,22,03,35,5.10
2009,05,22,03,36,5.10
2009,05,22,03,37,5.10
2009,05,22,03,38,5.10
2009,05,22,03,39,5.00
2009,05,22,03,40,5.00
2009,05,22,03,41,5.00
2009,05,22,03,42,5.00
2009,05,22,03,43,5.00
2009,05,22,03,44,5.00
2009,05,22,03,45,5.00
2009,05,22,03,46,5.00
2009,05,22,03,47,5.00
2009,05,22,03,48,4.90
2009,05,22,03,49,4.90
2009,05,22,03,50,4.90
2009,05,22,03,51,4.90
2009,05,22,03,52,4.90
2009,05,22,03,53,4.90
2009,05,22,03,54,4.90
2009,05,22,03,55,4.90
2009,05,22,03,56,4.90
2009,05,22,03,57,4.90
2009,05,22,03,58,4.90
2009,05,22,03,59,4.80
2009,05,22,04,00,4.80
2009,05,22,04,01,4.80
2009,05,22,04,02,4.80
2009,05,22,04,03,4.80
2009,05,22,04,04,4.80
2009,05,22,04,05,4.80
2009,05,22,04,06,4.80
2009,05,22,04,07,4.80
2009,05,22,04,08,4.80
2009,05,22,04,09,4.80
2009,05,22,04,10,4.80
2009,05,22,04,11,4.80
2009,05,22,04,12,4.80
2009,05,22,04,13,4.80
2009,05,22,04,14,4.80
2009,05,22,04,15,4.80
2009,05,22,04,16,4.80
2009,05,22,04,17,4.80
2009,05,22,04,18,4.80
2009,05,22,04,19,4.80
2009,05,22,04,20,4.80
2009,05,22,04,21,4.80
2009,05,22,04,22,4.80
2009,05,22,04,23,4.80
2009,05,22,04,24,4.80
2009,05,22,04,25,4.80
2009,05,22,04,26,4.80
2009,05,22,04,27,4.80
2009,05,22,04,28,4.70
2009,05,22,04,29,4.70
2009,05,22,04,30,4.70
2009,05,22,04,31,4.70
2009,05,22,04,32,4.70
2009,05,22,04,33,4.70
2009,05,22,04,34,4.70
2009,05,22,04,35,4.70
2009,05,22,04,36,4.70
2009,05,22,04,37,4.70
2009,05,22,04,38,4.70
2009,05,22,04,39,4.70
2009,05,22,04,40,4.70
2009,05,22,04,41,4.80
2009,05,22,04,42,4.80
2009,05,22,04,43,4.80
2009,05,22,04,44,4.80
2009,05,22,04,45,4.80
2009,05,22,04,46,4.80
2009,05,22,04,47,4.80
2009,05,22,04,48,4.80
2009,05,22,04,49,4.80
2009,05,22,04,50,4.80
2009,05,22,04,51,4.70
2009,05,22,04,52,4.70
2009,05,22,04,53,4.70
2009,05,22,04,54,4.70
2009,05,22,04,55,4.70
2009,05,22,04,56,4.70
2009,05,22,04,57,4.70
2009,05,22,04,58,4.60
2009,05,22,04,59,4.60
2009,05,22,05,00,4.60
2009,05,22,05,01,4.60
2009,05,22,05,02,4.60
2009,05,22,05,03,4.60
2009,05,22,05,04,4.50
2009,05,22,05,05,4.50
2009,05,22,05,06,4.50
2009,05,22,05,07,4.50
2009,05,22,05,08,4.50
2009,05,22,05,09,4.40
2009,05,22,05,10,4.40
2009,05,22,05,11,4.40
2009,05,22,05,12,4.40
2009,05,22,05,13,4.40
2009,05,22,05,14,4.40
2009,05,22,05,15,4.40
2009,05,22,05,16,4.40
2009,05,22,05,17,4.40
2009,05,22,05,18,4.40
2009,05,22,05,19,4.40
2009,05,22,05,20,4.40
2009,05,22,05,21,4.40
2009,05,22,05,22,4.30
2009,05,22,05,23,4.30
2009,05,22,05,24,4.30
2009,05,22,05,25,4.30
2009,05,22,05,26,4.30
2009,05,22,05,27,4.30
2009,05,22,05,28,4.30
2009,05,22,05,29,4.30
2009,05,22,05,30,4.30
2009,05,22,05,31,4.30
2009,05,22,05,32,4.30
2009,05,22,05,33,4.30
2009,05,22,05,34,4.30
2009,05,22,05,35,4.30
2009,05,22,05,36,4.20
2009,05,22,05,37,4.20
2009,05,22,05,38,4.20
2009,05,22,05,39,4.20
2009,05,22,05,40,4.20
2009,05,22,05,41,4.20
2009,05,22,05,42,4.20
2009,05,22,05,43,4.20
2009,05,22,05,44,4.20
2009,05,22,05,45,4.20
2009,05,22,05,46,4.10
2009,05,22,05,47,4.10
2009,05,22,05,48,4.10
2009,05,22,05,49,4.10
2009,05,22,05,50,4.10
2009,05,22,05,51,4.10
2009,05,22,05,52,4.10
2009,05,22,05,53,4.10
2009,05,22,05,54,4.10
2009,05,22,05,55,4.10
2009,05,22,05,56,4.00
2009,05,22,05,57,4.00
2009,05,22,05,58,4.00
2009,05,22,05,59,4.00
2009,05,22,06,00,4.00
2009,05,22,06,01,4.00
2009,05,22,06,02,4.00
2009,05,22,06,03,4.00
2009,05,22,06,04,4.00
2009,05,22,06,05,3.90
2009,05,22,06,06,3.90
2009,05,22,06,07,3.90
2009,05,22,06,08,3.90
2009,05,22,06,09,3.90
2009,05,22,06,10,3.90
2009,05,22,06,11,3.90
2009,05,22,06,12,4.00
2009,05,22,06,13,4.00
2009,05,22,06,14,4.00
2009,05,22,06,15,4.00
2009,05,22,06,16,4.00
2009,05,22,06,17,4.00
2009,05,22,06,18,4.00
2009,05,22,06,19,4.10
2009,05,22,06,20,4.10
2009,05,22,06,21,4.10
2009,05,22,06,22,4.10
2009,05,22,06,23,4.10
2009,05,22,06,24,4.10
2009,05,22,06,25,4.10
2009,05,22,06,26,4.20
2009,05,22,06,27,4.20
2009,05,22,06,28,4.20
2009,05,22,06,29,4.20
2009,05,22,06,30,4.20
2009,05,22,06,31,4.30
2009,05,22,06,32,4.30
2009,05,22,06,33,4.30
2009,05,22,06,34,4.30
2009,05,22,06,35,4.40
2009,05,22,06,36,4.40
2009,05,22,06,37,4.40
2009,05,22,06,38,4.40
2009,05,22,06,39,4.40
2009,05,22,06,40,4.50
2009,05,22,06,41,4.50
2009,05,22,06,42,4.50
2009,05,22,06,43,4.50
2009,05,22,06,44,4.50
2009,05,22,06,45,4.60
2009,05,22,06,46,4.60
2009,05,22,06,47,4.60
2009,05,22,06,48,4.70
2009,05,22,06,49,4.70
2009,05,22,06,50,4.70
2009,05,22,06,51,4.70
2009,05,22,06,52,4.80
2009,05,22,06,53,4.80
2009,05,22,06,54,4.80
2009,05,22,06,55,4.80
2009,05,22,06,56,4.90
2009,05,22,06,57,4.90
2009,05,22,06,58,4.90
2009,05,22,06,59,4.90
2009,05,22,07,00,5.00
2009,05,22,07,01,5.00
2009,05,22,07,02,5.00
2009,05,22,07,03,5.00
2009,05,22,07,04,5.10
2009,05,22,07,05,5.10
2009,05,22,07,06,5.10
2009,05,22,07,07,5.10
2009,05,22,07,08,5.10
2009,05,22,07,09,5.20
2009,05,22,07,10,5.20
2009,05,22,07,11,5.20
2009,05,22,07,12,5.20
2009,05,22,07,13,5.30
2009,05,22,07,14,5.30
2009,05,22,07,15,5.30
2009,05,22,07,16,5.40
2009,05,22,07,17,5.40
2009,05,22,07,18,5.40
2009,05,22,07,19,5.50
2009,05,22,07,20,5.50
2009,05,22,07,21,5.60
2009,05,22,07,22,5.60
2009,05,22,07,23,5.70
2009,05,22,07,24,5.70
2009,05,22,07,25,5.80
2009,05,22,07,26,5.80
2009,05,22,07,27,5.80
2009,05,22,07,28,5.90
2009,05,22,07,29,6.00
2009,05,22,07,30,6.00
2009,05,22,07,31,6.10
2009,05,22,07,32,6.10
2009,05,22,07,33,6.20
2009,05,22,07,34,6.30
2009,05,22,07,35,6.30
2009,05,22,07,36,6.30
2009,05,22,07,37,6.40
2009,05,22,07,38,6.50
2009,05,22,07,39,6.50
2009,05,22,07,40,6.60
2009,05,22,07,41,6.70
2009,05,22,07,42,6.70
2009,05,22,07,43,6.80
2009,05,22,07,44,6.80
2009,05,22,07,45,6.90
2009,05,22,07,46,6.90
2009,05,22,07,47,7.00
2009,05,22,07,48,7.10
2009,05,22,07,49,7.10
2009,05,22,07,50,7.20
2009,05,22,07,51,7.20
2009,05,22,07,52,7.30
2009,05,22,07,53,7.40
2009,05,22,07,54,7.40
2009,05,22,07,55,7.50
2009,05,22,07,56,7.60
2009,05,22,07,57,7.70
2009,05,22,07,58,7.80
2009,05,22,07,59,7.90
2009,05,22,08,00,8.00
2009,05,22,08,01,8.10
2009,05,22,08,02,8.20
2009,05,22,08,03,8.30
2009,05,22,08,04,8.50
2009,05,22,08,05,8.60
2009,05,22,08,06,8.70
2009,05,22,08,07,8.80
2009,05,22,08,08,8.90
2009,05,22,08,09,9.00
2009,05,22,08,10,9.10
2009,05,22,08,11,9.30
2009,05,22,08,12,9.40
2009,05,22,08,13,9.50
2009,05,22,08,14,9.60
2009,05,22,08,15,9.70
2009,05,22,08,16,9.80
2009,05,22,08,17,10.00
2009,05,22,08,18,10.10
2009,05,22,08,19,10.30
2009,05,22,08,20,10.40
2009,05,22,08,21,10.60
2009,05,22,08,22,10.80
2009,05,22,08,23,10.90
2009,05,22,08,24,11.00
2009,05,22,08,25,11.20
2009,05,22,08,26,11.30
2009,05,22,08,27,11.40
2009,05,22,08,28,11.60
2009,05,22,08,29,11.60
2009,05,22,08,30,11.70
2009,05,22,08,31,11.80
2009,05,22,08,32,11.90
2009,05,22,08,33,11.90
2009,05,22,08,34,12.00
2009,05,22,08,35,12.10
2009,05,22,08,36,12.20
2009,05,22,08,37,12.30
2009,05,22,08,38,12.30
2009,05,22,08,39,12.40
2009,05,22,08,40,12.40
2009,05,22,08,41,12.50
2009,05,22,08,42,12.60
2009,05,22,08,43,12.70
2009,05,22,08,44,12.80
2009,05,22,08,45,12.80
2009,05,22,08,46,12.90
2009,05,22,08,47,13.00
2009,05,22,08,48,13.10
2009,05,22,08,49,13.20
2009,05,22,08,50,13.30
2009,05,22,08,51,13.30
2009,05,22,08,52,13.40
2009,05,22,08,53,13.50
2009,05,22,08,54,13.60
2009,05,22,08,55,13.60
2009,05,22,08,56,13.60
2009,05,22,08,57,13.70
2009,05,22,08,58,13.70
2009,05,22,08,59,13.70
2009,05,22,09,00,13.70
2009,05,22,09,01,13.70
2009,05,22,09,02,13.70
2009,05,22,09,03,13.70
2009,05,22,09,04,13.70
2009,05,22,09,05,13.70
2009,05,22,09,06,13.80
2009,05,22,09,07,13.70
2009,05,22,09,08,13.70
2009,05,22,09,09,13.80
2009,05,22,09,10,13.80
2009,05,22,09,11,13.80
2009,05,22,09,12,13.70
2009,05,22,09,13,13.80
2009,05,22,09,14,13.80
2009,05,22,09,15,13.80
2009,05,22,09,16,13.80
2009,05,22,09,17,13.90
2009,05,22,09,18,13.90
2009,05,22,09,19,13.90
2009,05,22,09,20,14.00
2009,05,22,09,21,14.10
2009,05,22,09,22,14.10
2009,05,22,09,23,14.20
2009,05,22,09,24,14.30
2009,05,22,09,25,14.40
2009,05,22,09,26,14.40
2009,05,22,09,27,14.50
2009,05,22,09,28,14.50
2009,05,22,09,29,14.50
2009,05,22,09,30,14.60
2009,05,22,09,31,14.60
2009,05,22,09,32,14.60
2009,05,22,09,33,14.70
2009,05,22,09,34,14.70
2009,05,22,09,35,14.70
2009,05,22,09,36,14.70
2009,05,22,09,37,14.80
2009,05,22,09,38,14.80
2009,05,22,09,39,14.80
2009,05,22,09,40,14.90
2009,05,22,09,41,15.00
2009,05,22,09,42,15.00
2009,05,22,09,43,15.00
2009,05,22,09,44,15.00
2009,05,22,09,45,15.10
2009,05,22,09,46,15.20
2009,05,22,09,47,15.20
2009,05,22,09,48,15.20
2009,05,22,09,49,15.30
2009,05,22,09,50,15.30
2009,05,22,09,51,15.30
2009,05,22,09,52,15.30
2009,05,22,09,53,15.30
2009,05,22,09,54,15.40
2009,05,22,09,55,15.40
2009,05,22,09,56,15.40
2009,05,22,09,57,15.40
2009,05,22,09,58,15.50
2009,05,22,09,59,15.60
2009,05,22,10,00,15.60
2009,05,22,10,01,15.70
2009,05,22,10,02,15.80
2009,05,22,10,03,15.80
2009,05,22,10,04,15.90
2009,05,22,10,05,15.90
2009,05,22,10,06,16.00
2009,05,22,10,07,16.00
2009,05,22,10,08,16.10
2009,05,22,10,09,16.10
2009,05,22,10,10,16.10
2009,05,22,10,11,16.10
2009,05,22,10,12,16.10
2009,05,22,10,13,16.20
2009,05,22,10,14,16.20
2009,05,22,10,15,16.20
2009,05,22,10,16,16.20
2009,05,22,10,17,16.20
2009,05,22,10,18,16.20
2009,05,22,10,19,16.20
2009,05,22,10,20,16.20
2009,05,22,10,21,16.30
2009,05,22,10,22,16.40
2009,05,22,10,23,16.40
2009,05,22,10,24,16.50
2009,05,22,10,25,16.60
2009,05,22,10,26,16.70
2009,05,22,10,27,16.70
2009,05,22,10,28,16.80
2009,05,22,10,29,16.90
2009,05,22,10,30,16.90
2009,05,22,10,31,16.90
2009,05,22,10,32,16.90
2009,05,22,10,33,17.00
2009,05,22,10,34,17.00
2009,05,22,10,35,17.10
2009,05,22,10,36,17.10
2009,05,22,10,37,17.20
2009,05,22,10,38,17.20
2009,05,22,10,39,17.20
2009,05,22,10,40,17.30
2009,05,22,10,41,17.30
2009,05,22,10,42,17.40
2009,05,22,10,43,17.50
2009,05,22,10,44,17.60
2009,05,22,10,45,17.70
2009,05,22,10,46,17.70
2009,05,22,10,47,17.70
2009,05,22,10,48,17.60
2009,05,22,10,49,17.60
2009,05,22,10,50,17.60
2009,05,22,10,51,17.50
2009,05,22,10,52,17.40
2009,05,22,10,53,17.40
2009,05,22,10,54,17.40
2009,05,22,10,55,17.40
2009,05,22,10,56,17.40
2009,05,22,10,57,17.50
2009,05,22,10,58,17.50
2009,05,22,10,59,17.50
2009,05,22,11,00,17.40
2009,05,22,11,01,17.40
2009,05,22,11,02,17.40
2009,05,22,11,03,17.40
2009,05,22,11,04,17.40
2009,05,22,11,05,17.40
2009,05,22,11,06,17.40
2009,05,22,11,07,17.50
2009,05,22,11,08,17.50
2009,05,22,11,09,17.60
2009,05,22,11,10,17.70
2009,05,22,11,11,17.80
2009,05,22,11,12,17.90
2009,05,22,11,13,18.00
2009,05,22,11,14,18.00
2009,05,22,11,15,18.00
2009,05,22,11,16,18.00
2009,05,22,11,17,17.90
2009,05,22,11,18,17.90
2009,05,22,11,19,17.80
2009,05,22,11,20,17.80
2009,05,22,11,21,17.70
2009,05,22,11,22,17.80
2009,05,22,11,23,17.70
2009,05,22,11,24,17.70
2009,05,22,11,25,17.70
2009,05,22,11,26,17.70
2009,05,22,11,27,17.80
2009,05,22,11,28,17.80
2009,05,22,11,29,17.80
2009,05,22,11,30,17.80
2009,05,22,11,31,17.80
2009,05,22,11,32,17.80
2009,05,22,11,33,17.80
2009,05,22,11,34,17.90
2009,05,22,11,35,17.90
2009,05,22,11,36,17.80
2009,05,22,11,37,17.80
2009,05,22,11,38,17.80
2009,05,22,11,39,17.80
2009,05,22,11,40,17.80
2009,05,22,11,41,17.80
2009,05,22,11,42,17.90
2009,05,22,11,43,18.00
2009,05,22,11,44,18.10
2009,05,22,11,45,18.20
2009,05,22,11,46,18.20
2009,05,22,11,47,18.10
2009,05,22,11,48,18.10
2009,05,22,11,49,18.10
2009,05,22,11,50,18.10
2009,05,22,11,51,18.10
2009,05,22,11,52,18.10
2009,05,22,11,53,18.10
2009,05,22,11,54,18.20
2009,05,22,11,55,18.20
2009,05,22,11,56,18.20
2009,05,22,11,57,18.30
2009,05,22,11,58,18.30
2009,05,22,11,59,18.40
2009,05,22,12,00,18.40
2009,05,22,12,01,18.50
2009,05,22,12,02,18.50
2009,05,22,12,03,18.50
2009,05,22,12,04,18.50
2009,05,22,12,05,18.50
2009,05,22,12,06,18.50
2009,05,22,12,07,18.50
2009,05,22,12,08,18.60
2009,05,22,12,09,18.50
2009,05,22,12,10,18.60
2009,05,22,12,11,18.60
2009,05,22,12,12,18.60
2009,05,22,12,13,18.70
2009,05,22,12,14,18.70
2009,05,22,12,15,18.70
2009,05,22,12,16,18.70
2009,05,22,12,17,18.70
2009,05,22,12,18,18.70
2009,05,22,12,19,18.70
2009,05,22,12,20,18.80
2009,05,22,12,21,18.70
2009,05,22,12,22,18.70
2009,05,22,12,23,18.70
2009,05,22,12,24,18.70
2009,05,22,12,25,18.60
2009,05,22,12,26,18.60
2009,05,22,12,27,18.50
2009,05,22,12,28,18.40
2009,05,22,12,29,18.40
2009,05,22,12,30,18.40
2009,05,22,12,31,18.50
2009,05,22,12,32,18.50
2009,05,22,12,33,18.60
2009,05,22,12,34,18.60
2009,05,22,12,35,18.60
2009,05,22,12,36,18.60
2009,05,22,12,37,18.70
2009,05,22,12,38,18.70
2009,05,22,12,39,18.80
2009,05,22,12,40,18.80
2009,05,22,12,41,18.90
2009,05,22,12,42,18.90
2009,05,22,12,43,18.90
2009,05,22,12,44,18.90
2009,05,22,12,45,18.90
2009,05,22,12,46,18.90
2009,05,22,12,47,18.90
2009,05,22,12,48,18.80
2009,05,22,12,49,18.80
2009,05,22,12,50,18.80
2009,05,22,12,51,18.80
2009,05,22,12,52,18.80
2009,05,22,12,53,18.80
2009,05,22,12,54,18.80
2009,05,22,12,55,18.80
2009,05,22,12,56,18.70
2009,05,22,12,57,18.70
2009,05,22,12,58,18.70
2009,05,22,12,59,18.70
2009,05,22,13,00,18.70
2009,05,22,13,01,18.80
2009,05,22,13,02,18.80
2009,05,22,13,03,18.80
2009,05,22,13,04,18.90
2009,05,22,13,05,18.90
2009,05,22,13,06,18.90
2009,05,22,13,07,18.80
2009,05,22,13,08,18.80
2009,05,22,13,09,18.80
2009,05,22,13,10,18.70
2009,05,22,13,11,18.70
2009,05,22,13,12,18.60
2009,05,22,13,13,18.70
2009,05,22,13,14,18.70
2009,05,22,13,15,18.70
2009,05,22,13,16,18.70
2009,05,22,13,17,18.70
2009,05,22,13,18,18.70
2009,05,22,13,19,18.70
2009,05,22,13,20,18.70
2009,05,22,13,21,18.70
2009,05,22,13,22,18.70
2009,05,22,13,23,18.80
2009,05,22,13,24,18.80
2009,05,22,13,25,18.80
2009,05,22,13,26,18.80
2009,05,22,13,27,18.60
2009,05,22,13,28,18.60
2009,05,22,13,29,18.50
2009,05,22,13,30,18.50
2009,05,22,13,31,18.50
2009,05,22,13,32,18.50
2009,05,22,13,33,18.50
2009,05,22,13,34,18.60
2009,05,22,13,35,18.60
2009,05,22,13,36,18.70
2009,05,22,13,37,18.70
2009,05,22,13,38,18.70
2009,05,22,13,39,18.70
2009,05,22,13,40,18.80
2009,05,22,13,41,18.80
2009,05,22,13,42,18.80
2009,05,22,13,43,18.80
2009,05,22,13,44,18.80
2009,05,22,13,45,18.80
2009,05,22,13,46,18.80
2009,05,22,13,47,18.90
2009,05,22,13,48,18.90
2009,05,22,13,49,19.00
2009,05,22,13,50,19.00
2009,05,22,13,51,19.10
2009,05,22,13,52,19.10
2009,05,22,13,53,19.10
2009,05,22,13,54,19.10
2009,05,22,13,55,19.20
2009,05,22,13,56,19.20
2009,05,22,13,57,19.20
2009,05,22,13,58,19.20
2009,05,22,13,59,19.10
2009,05,22,14,00,19.10
2009,05,22,14,01,19.10
2009,05,22,14,02,19.10
2009,05,22,14,03,19.10
2009,05,22,14,04,19.10
2009,05,22,14,05,19.10
2009,05,22,14,06,19.10
2009,05,22,14,07,19.00
2009,05,22,14,08,19.00
2009,05,22,14,09,18.90
2009,05,22,14,10,18.90
2009,05,22,14,11,18.90
2009,05,22,14,12,18.90
2009,05,22,14,13,18.90
2009,05,22,14,14,18.90
2009,05,22,14,15,19.00
2009,05,22,14,16,19.00
2009,05,22,14,17,19.10
2009,05,22,14,18,19.10
2009,05,22,14,19,19.10
2009,05,22,14,20,19.10
2009,05,22,14,21,19.10
2009,05,22,14,22,19.10
2009,05,22,14,23,19.10
2009,05,22,14,24,19.10
2009,05,22,14,25,19.10
2009,05,22,14,26,19.10
2009,05,22,14,27,19.20
2009,05,22,14,28,19.20
2009,05,22,14,29,19.10
2009,05,22,14,30,19.10
2009,05,22,14,31,19.00
2009,05,22,14,32,19.00
2009,05,22,14,33,19.00
2009,05,22,14,34,19.00
2009,05,22,14,35,19.00
2009,05,22,14,36,19.00
2009,05,22,14,37,19.00
2009,05,22,14,38,18.90
2009,05,22,14,39,18.90
2009,05,22,14,40,18.90
2009,05,22,14,41,18.90
2009,05,22,14,42,18.90
2009,05,22,14,43,18.90
2009,05,22,14,44,18.90
2009,05,22,14,45,18.90
2009,05,22,14,46,18.90
2009,05,22,14,47,18.90
2009,05,22,14,48,18.90
2009,05,22,14,49,19.00
2009,05,22,14,50,19.10
2009,05,22,14,51,19.20
2009,05,22,14,52,19.20
2009,05,22,14,53,19.20
2009,05,22,14,54,19.20
2009,05,22,14,55,19.10
2009,05,22,14,56,19.10
2009,05,22,14,57,19.20
2009,05,22,14,58,19.20
2009,05,22,14,59,19.30
2009,05,22,15,00,19.30
2009,05,22,15,01,19.30
2009,05,22,15,02,19.40
2009,05,22,15,03,19.40
2009,05,22,15,04,19.40
2009,05,22,15,05,19.40
2009,05,22,15,06,19.40
2009,05,22,15,07,19.40
2009,05,22,15,08,19.50
2009,05,22,15,09,19.50
2009,05,22,15,10,19.50
2009,05,22,15,11,19.60
2009,05,22,15,12,19.60
2009,05,22,15,13,19.70
2009,05,22,15,14,19.80
2009,05,22,15,15,19.80
2009,05,22,15,16,19.80
2009,05,22,15,17,19.80
2009,05,22,15,18,19.80
2009,05,22,15,19,19.80
2009,05,22,15,20,19.80
2009,05,22,15,21,19.80
2009,05,22,15,22,19.70
2009,05,22,15,23,19.70
2009,05,22,15,24,19.70
2009,05,22,15,25,19.70
2009,05,22,15,26,19.80
2009,05,22,15,27,19.80
2009,05,22,15,28,19.90
2009,05,22,15,29,19.90
2009,05,22,15,30,20.00
2009,05,22,15,31,20.00
2009,05,22,15,32,20.00
2009,05,22,15,33,20.00
2009,05,22,15,34,20.00
2009,05,22,15,35,20.00
2009,05,22,15,36,20.00
2009,05,22,15,37,20.10
2009,05,22,15,38,20.10
2009,05,22,15,39,20.20
2009,05,22,15,40,20.20
2009,05,22,15,41,20.20
2009,05,22,15,42,20.30
2009,05,22,15,43,20.30
2009,05,22,15,44,20.30
2009,05,22,15,45,20.30
2009,05,22,15,46,20.40
2009,05,22,15,47,20.40
2009,05,22,15,48,20.40
2009,05,22,15,49,20.50
2009,05,22,15,50,20.50
2009,05,22,15,51,20.60
2009,05,22,15,52,20.60
2009,05,22,15,53,20.60
2009,05,22,15,54,20.60
2009,05,22,15,55,20.60
2009,05,22,15,56,20.60
2009,05,22,15,57,20.60
2009,05,22,15,58,20.70
2009,05,22,15,59,20.70
2009,05,22,16,00,20.70
2009,05,22,16,01,20.70
2009,05,22,16,02,20.70
2009,05,22,16,03,20.70
2009,05,22,16,04,20.70
2009,05,22,16,05,20.70
2009,05,22,16,06,20.70
2009,05,22,16,07,20.70
2009,05,22,16,08,20.80
2009,05,22,16,09,20.80
2009,05,22,16,10,20.80
2009,05,22,16,11,20.80
2009,05,22,16,12,20.80
2009,05,22,16,13,20.80
2009,05,22,16,14,20.80
2009,05,22,16,15,20.80
2009,05,22,16,16,20.80
2009,05,22,16,17,20.80
2009,05,22,16,18,20.90
2009,05,22,16,19,20.90
2009,05,22,16,20,21.00
2009,05,22,16,21,21.00
2009,05,22,16,22,21.00
2009,05,22,16,23,21.00
2009,05,22,16,24,21.00
2009,05,22,16,25,21.00
2009,05,22,16,26,21.00
2009,05,22,16,27,21.10
2009,05,22,16,28,21.10
2009,05,22,16,29,21.10
2009,05,22,16,30,21.20
2009,05,22,16,31,21.20
2009,05,22,16,32,21.20
2009,05,22,16,33,21.10
2009,05,22,16,34,21.00
2009,05,22,16,35,21.00
2009,05,22,16,36,20.90
2009,05,22,16,37,20.90
2009,05,22,16,38,20.90
2009,05,22,16,39,20.90
2009,05,22,16,40,20.80
2009,05,22,16,41,20.80
2009,05,22,16,42,20.80
2009,05,22,16,43,20.80
2009,05,22,16,44,20.90
2009,05,22,16,45,20.80
2009,05,22,16,46,20.80
2009,05,22,16,47,20.70
2009,05,22,16,48,20.70
2009,05,22,16,49,20.70
2009,05,22,16,50,20.70
2009,05,22,16,51,20.70
2009,05,22,16,52,20.70
2009,05,22,16,53,20.70
2009,05,22,16,54,20.70
2009,05,22,16,55,20.70
2009,05,22,16,56,20.70
2009,05,22,16,57,20.60
2009,05,22,16,58,20.60
2009,05,22,16,59,20.70
2009,05,22,17,00,20.60
2009,05,22,17,01,20.60
2009,05,22,17,02,20.50
2009,05,22,17,03,20.50
2009,05,22,17,04,20.50
2009,05,22,17,05,20.40
2009,05,22,17,06,20.40
2009,05,22,17,07,20.40
2009,05,22,17,08,20.40
2009,05,22,17,09,20.40
2009,05,22,17,10,20.50
2009,05,22,17,11,20.50
2009,05,22,17,12,20.50
2009,05,22,17,13,20.50
2009,05,22,17,14,20.50
2009,05,22,17,15,20.50
2009,05,22,17,16,20.40
2009,05,22,17,17,20.50
2009,05,22,17,18,20.50
2009,05,22,17,19,20.50
2009,05,22,17,20,20.50
2009,05,22,17,21,20.60
2009,05,22,17,22,20.60
2009,05,22,17,23,20.60
2009,05,22,17,24,20.60
2009,05,22,17,25,20.70
2009,05,22,17,26,20.70
2009,05,22,17,27,20.70
2009,05,22,17,28,20.70
2009,05,22,17,29,20.70
2009,05,22,17,30,20.70
2009,05,22,17,31,20.70
2009,05,22,17,32,20.70
2009,05,22,17,33,20.70
2009,05,22,17,34,20.60
2009,05,22,17,35,20.60
2009,05,22,17,36,20.50
2009,05,22,17,37,20.50
2009,05,22,17,38,20.40
2009,05,22,17,39,20.40
2009,05,22,17,40,20.40
2009,05,22,17,41,20.40